Location: Cutler
(25.6150°N, 80.3110°W)
Time: 22:45:50
(UTC-05:00)

Vanguard 1 - Pass Details

Date: 30 January 2018
Orbit: 650 x 3833 km, 34.2° (Epoch: 24 February)

Event Time Altitude Azimuth Distance (km) Brightness Sun altitude
Rises 01:05:27 0° 295° (WNW) 3,602 - -79.3°
Reaches altitude 10° 01:07:34 10° 299° (WNW) 2,880 - -78.9°
Maximum altitude 01:14:35 63° 20° (NNE) 1,681 - -77.8°
Exits shadow 01:27:19 11° 100° (E) 5,047 13.7 -75.4°
Drops below altitude 10° 01:27:51 10° 100° (E) 5,208 13.8 -75.3°
Sets 01:33:08 0° 103° (ESE) 6,725 14.5 -74.2°
